Wind_Speed
14 14 15 14 15 15 15 15 16 16 17 16 15 15 15 15 16 17 17 18 18 18 17 17 18 18 19 19 19 20 21 21 22 21 21 22 23 23 24 24 24 24 25
15 14 14 15 15 15 15 14 15 16 16 16 16 16 16 16 17 18 19 19 19 18 19 19 18 19 19 19 19 20 20 20 20 20 20 21 22 23 23 24 24 24 25
13 13 14 14 14 14 15 15 15 16 16 16 17 17 16 17 18 19 19 19 19 19 18 19 19 18 19 19 19 18 18 18 19 20 21 20 21 21 22 23 23 25 26
14 14 14 14 14 15 15 15 16 17 17 17 17 17 18 18 19 20 20 20 20 19 19 19 19 19 19 18 18 17 17 17 18 19 20 20 21 21 21 22 23 24 25
14 15 15 15 15 15 15 16 16 17 17 17 18 18 19 19 19 19 19 19 19 19 18 19 19 19 19 18 17 16 17 17 17 18 19 20 20 21 22 22 22 23 23
14 15 15 15 15 16 16 16 17 18 18 18 19 19 19 19 20 19 18 19 19 19 19 18 18 18 18 17 16 16 17 17 18 18 19 20 20 21 21 21 22 23 23
15 14 15 15 15 16 17 17 17 18 18 18 18 18 19 20 19 18 18 19 19 19 19 19 18 18 17 17 16 16 17 17 18 18 19 20 21 21 21 22 23 24 24
15 15 16 17 16 16 16 17 18 18 18 18 18 18 19 20 19 18 18 19 19 20 19 19 18 17 17 17 17 17 17 18 18 19 20 21 21 21 22 22 22 22 23
16 16 17 17 17 17 17 17 18 18 18 18 18 18 19 19 19 19 19 20 20 20 19 19 18 18 18 17 17 17 18 18 19 19 20 21 21 21 21 22 23 23 23
17 17 17 17 17 17 17 17 17 18 18 18 18 19 19 20 20 20 20 20 20 20 19 19 18 18 18 18 17 17 18 19 19 19 20 20 20 20 21 21 22 23 23
17 18 17 17 17 17 17 18 18 18 18 19 19 19 19 19 19 19 20 20 20 20 19 19 19 19 18 18 18 18 18 18 18 18 19 19 19 19 20 20 21 21 22
17 17 17 17 17 17 17 17 17 18 19 19 19 19 19 19 19 19 20 20 20 19 19 19 19 19 19 18 17 17 18 18 18 19 19 19 19 20 20 21 22 22 22
17 17 17 18 17 17 17 17 18 18 19 19 19 19 19 19 19 20 20 20 19 18 19 19 19 19 19 19 18 18 18 18 19 19 20 20 20 20 20 21 22 23 24
17 17 18 18 18 17 17 17 18 18 19 19 19 19 19 19 19 19 19 19 18 18 19 20 20 20 20 20 19 18 19 19 20 20 20 20 20 21 21 22 22 23 24
18 17 17 17 17 17 18 18 18 19 19 19 19 19 19 19 19 19 19 19 18 18 18 19 20 20 20 20 19 19 19 20 20 20 21 21 21 22 23 24 24 25 25
18 17 17 17 17 17 18 18 19 20 20 20 20 20 20 20 19 19 19 19 19 19 19 19 19 19 19 19 19 19 19 20 20 21 21 22 22 23 23 24 25 25 25
18 17 17 17 18 18 19 19 20 20 20 20 20 20 20 20 20 20 20 20 20 20 19 19 19 19 19 19 19 20 20 20 20 21 22 22 23 24 24 25 26 26 26
19 19 18 19 18 19 20 20 20 20 19 19 19 19 20 20 20 20 20 20 20 19 19 19 19 19 19 19 19 19 20 21 22 22 22 23 24 25 25 26 26 25 25
20 20 20 20 20 20 20 21 20 19 19 20 20 20 20 21 20 20 20 20 20 19 19 19 19 19 19 19 19 20 21 21 22 23 23 23 24 24 25 25 25 25 25
20 21 21 20 21 21 21 21 20 20 20 21 20 21 21 21 21 20 19 20 20 19 20 19 19 19 19 19 19 20 21 22 22 22 22 23 23 24 25 24 25 25 25
20 21 21 21 22 22 22 22 21 21 21 21 22 22 22 22 21 20 20 19 19 19 19 19 19 19 19 19 20 21 21 22 23 22 22 23 23 24 24 24 24 25 24
21 21 21 21 21 22 22 21 21 21 21 21 21 22 22 22 21 21 20 20 20 19 19 19 19 19 19 20 21 21 22 22 23 23 23 23 24 24 25 25 25 25 24
22 22 22 22 21 21 21 21 21 21 21 21 21 22 22 21 21 21 20 20 20 19 19 19 19 19 20 20 21 21 21 22 22 22 22 22 23 24 25 25 25 25 24
23 22 22 22 21 21 21 21 21 21 21 21 21 21 21 21 21 21 21 20 20 19 19 19 19 19 19 20 20 20 20 21 21 21 22 22 22 23 23 23 23 23 23
23 22 22 22 22 22 21 21 21 20 21 21 21 21 21 21 20 20 20 19 19 19 19 19 18 18 18 19 20 20 21 21 21 21 22 23 23 22 22 22 22 22 22
23 22 22 21 21 21 21 21 21 21 21 21 21 21 20 20 19 19 19 17 17 17 18 18 18 18 18 19 20 21 22 22 22 22 22 23 23 23 23 22 22 21 21
Wind_Direction
303 300 296 303 304 306 305 306 308 311 314 313 308 308 310 312 313 313 312 311 310 306 303 299 294 291 288 286 284 282 280 278 276 273 271 269 268 266 265 265 266 265 262
302 303 302 306 305 305 305 306 309 312 315 314 308 308 309 311 313 312 310 310 309 306 303 302 298 293 291 289 287 285 283 282 278 275 272 272 271 269 269 267 266 266 265
303 304 307 309 307 308 309 308 308 313 313 312 308 308 308 310 312 312 310 310 310 308 305 304 303 300 293 290 288 287 284 281 280 278 275 274 274 274 271 269 268 268 268
305 309 308 308 307 307 309 309 309 312 311 309 308 308 308 309 311 312 310 309 310 310 306 305 304 302 299 293 288 287 287 284 282 279 278 277 277 275 271 270 271 270 269
309 309 306 306 307 307 309 310 310 310 309 311 310 310 310 312 313 312 310 310 309 310 310 309 307 304 299 294 292 289 288 287 285 281 280 279 278 277 276 272 272 271 270
306 307 307 306 305 306 309 310 311 309 307 309 309 309 311 312 312 312 311 309 309 311 311 311 310 306 299 294 293 292 289 288 285 283 282 281 280 279 279 277 274 273 272
301 304 305 307 306 305 307 309 311 310 307 307 308 309 310 312 311 310 311 311 311 311 312 311 311 309 305 300 296 292 289 291 290 287 286 284 281 281 280 279 277 275 274
299 302 304 307 308 306 307 309 312 311 309 307 308 309 310 311 311 310 310 311 311 310 310 311 309 308 307 305 298 295 294 295 294 291 289 287 285 283 282 280 279 277 275
296 299 301 305 306 306 307 308 309 311 309 309 309 310 312 313 313 312 311 310 308 309 309 308 307 305 304 302 302 297 297 297 296 294 292 291 290 287 284 281 280 279 276
291 293 298 301 303 303 302 304 307 310 308 307 308 308 310 310 311 311 311 309 308 308 307 306 303 302 301 297 298 299 300 301 300 296 294 293 292 289 287 286 285 282 279
291 292 295 298 299 301 301 303 304 307 308 307 306 306 309 310 311 311 311 310 310 309 309 308 305 304 302 299 300 300 299 298 297 294 295 295 293 293 292 291 290 288 283
292 293 294 296 297 300 301 302 304 307 307 306 305 304 306 309 309 311 311 309 309 307 306 307 307 304 305 303 301 299 296 296 295 298 299 298 297 296 294 292 292 290 287
291 294 295 296 298 299 299 301 305 309 311 308 305 304 304 306 307 309 308 307 307 307 305 304 304 305 305 305 302 300 298 295 296 298 299 299 297 296 294 293 292 290 288
295 297 298 298 298 298 298 302 307 310 312 311 309 307 306 308 308 309 308 307 306 305 307 305 305 306 307 306 302 297 296 296 295 296 297 298 298 296 295 294 294 292 289
294 295 298 299 300 299 299 303 306 308 310 311 310 310 310 310 310 310 310 309 307 305 306 307 308 308 307 305 303 299 296 296 297 297 297 298 299 297 295 293 293 292 291
290 292 294 298 300 300 301 302 303 305 307 309 310 309 310 310 309 309 310 309 307 306 307 307 307 309 307 305 305 302 299 299 298 297 297 299 299 299 299 297 296 295 293
287 288 292 296 300 301 302 302 303 305 306 307 309 310 310 310 309 307 308 308 308 309 308 308 307 308 307 306 305 303 301 299 300 299 298 299 300 300 299 299 298 297 296
284 287 291 294 295 297 300 301 303 304 305 307 309 310 311 312 311 309 309 308 307 308 307 305 303 304 304 305 304 303 304 301 300 300 300 299 299 299 299 298 298 298 297
281 285 289 291 293 296 298 299 302 303 304 305 306 307 310 312 311 311 310 309 307 306 305 303 303 303 303 303 303 303 305 304 303 303 302 301 301 301 301 301 300 299 298
283 286 287 290 294 297 298 300 301 301 302 303 305 307 308 310 310 309 309 308 306 305 305 305 305 304 303 303 304 305 305 306 306 306 305 304 305 305 305 303 302 301 299
283 287 288 290 293 295 297 298 299 300 302 303 306 308 309 310 310 309 308 308 308 307 307 306 306 307 308 308 308 307 307 308 308 307 306 305 306 306 306 305 305 304 301
283 285 288 291 291 293 296 297 298 301 303 304 305 307 308 310 312 311 310 310 310 309 308 308 309 310 311 310 309 309 309 309 309 308 307 304 305 306 306 305 305 305 304
282 283 286 289 291 292 293 294 297 299 301 303 306 309 309 310 310 311 311 310 309 307 306 308 310 312 312 311 311 311 312 311 311 310 309 308 309 308 308 307 305 305 305
281 280 281 285 288 289 290 291 294 296 298 301 305 309 311 311 310 311 312 310 310 309 309 311 312 313 314 313 313 313 313 312 310 308 308 310 312 311 312 311 308 307 306
278 280 281 283 285 288 288 289 291 293 295 298 302 306 308 309 310 311 312 313 314 314 314 314 317 317 317 316 316 316 314 313 313 312 312 311 310 309 309 309 310 309 308
277 278 280 282 284 286 288 290 291 292 293 295 298 302 306 309 310 311 313 314 315 316 317 317 318 318 319 319 320 320 319 318 316 315 314 313 311 309 309 309 310 311 310
Height
5844 5843 5842 5841 5840 5839 5839 5837 5836 5834 5833 5831 5829 5828 5826 5824 5823 5821 5820 5818 5816 5815 5813 5812 5811 5810 5809 5808 5808 5807 5806 5806 5805 5806 5806 5807 5807 5807 5808 5808 5808 5809 5810
5842 5841 5839 5839 5838 5837 5836 5835 5833 5832 5830 5828 5826 5825 5823 5821 5820 5818 5816 5814 5813 5811 5809 5808 5806 5805 5804 5804 5803 5802 5801 5801 5800 5800 5801 5801 5802 5801 5801 5802 5802 5803 5803
5840 5838 5837 5836 5835 5834 5833 5832 5831 5829 5827 5825 5823 5822 5820 5818 5816 5815 5813 5811 5809 5807 5805 5804 5802 5801 5799 5798 5797 5797 5796 5796 5796 5795 5795 5796 5796 5796 5796 5795 5796 5796 5796
5838 5837 5835 5834 5833 5832 5830 5829 5828 5826 5824 5823 5821 5819 5817 5815 5813 5811 5809 5807 5805 5803 5801 5800 5798 5796 5795 5793 5792 5792 5792 5791 5791 5791 5790 5790 5789 5789 5790 5790 5789 5789 5789
5836 5835 5832 5831 5830 5829 5828 5827 5825 5823 5821 5819 5817 5815 5813 5811 5809 5807 5805 5803 5801 5799 5797 5795 5793 5792 5790 5789 5788 5787 5787 5786 5786 5785 5785 5784 5784 5783 5783 5783 5783 5782 5781
5834 5832 5830 5829 5827 5826 5824 5823 5822 5820 5818 5816 5813 5811 5809 5807 5805 5802 5800 5799 5797 5795 5793 5792 5789 5787 5786 5785 5784 5783 5783 5782 5781 5780 5780 5779 5778 5778 5777 5777 5777 5776 5775
5831 5830 5828 5826 5825 5823 5822 5820 5818 5816 5814 5812 5810 5807 5805 5803 5801 5799 5797 5795 5793 5791 5789 5788 5786 5784 5782 5781 5780 5779 5779 5778 5777 5776 5774 5774 5773 5772 5771 5771 5770 5770 5770
5829 5827 5825 5824 5822 5820 5819 5817 5815 5813 5810 5808 5806 5804 5801 5799 5797 5795 5793 5791 5789 5787 5785 5784 5782 5780 5779 5777 5776 5775 5774 5773 5772 5771 5769 5768 5767 5766 5765 5765 5764 5764 5764
5825 5824 5822 5821 5819 5817 5815 5814 5812 5809 5807 5804 5802 5800 5798 5795 5793 5791 5789 5787 5785 5783 5781 5779 5778 5776 5775 5773 5772 5771 5770 5769 5767 5766 5764 5763 5762 5761 5760 5759 5758 5758 5758
5821 5820 5819 5817 5815 5814 5812 5810 5808 5806 5803 5801 5798 5796 5794 5792 5789 5787 5785 5783 5780 5778 5776 5775 5774 5772 5771 5769 5768 5767 5766 5764 5763 5761 5760 5758 5757 5755 5754 5753 5752 5752 5751
5818 5816 5815 5814 5812 5810 5808 5806 5804 5802 5799 5797 5795 5792 5790 5787 5785 5783 5781 5778 5776 5774 5772 5771 5769 5768 5767 5765 5764 5762 5761 5760 5758 5757 5755 5753 5752 5751 5749 5748 5747 5746 5745
5814 5813 5811 5810 5808 5806 5804 5802 5801 5798 5796 5793 5790 5788 5786 5783 5781 5779 5776 5774 5772 5770 5769 5767 5765 5764 5762 5761 5759 5758 5756 5755 5754 5752 5750 5749 5747 5746 5744 5743 5742 5740 5739
5811 5809 5807 5806 5804 5802 5801 5799 5797 5794 5791 5789 5786 5784 5781 5779 5777 5774 5772 5770 5768 5767 5765 5763 5761 5760 5758 5756 5755 5753 5751 5750 5749 5747 5745 5744 5743 5741 5739 5738 5736 5735 5734
5807 5805 5804 5802 5800 5798 5797 5795 5793 5790 5788 5785 5782 5780 5778 5775 5773 5771 5768 5766 5764 5763 5761 5759 5757 5755 5753 5751 5750 5748 5747 5745 5744 5742 5741 5739 5737 5736 5734 5733 5731 5729 5727
5803 5802 5800 5798 5796 5794 5793 5791 5789 5787 5784 5782 5779 5776 5774 5772 5769 5767 5764 5762 5760 5758 5756 5755 5753 5750 5748 5746 5745 5743 5742 5741 5739 5737 5736 5734 5732 5730 5728 5727 5725 5722 5720
5799 5798 5796 5794 5793 5791 5789 5787 5785 5783 5780 5777 5775 5773 5770 5767 5765 5763 5760 5758 5756 5754 5752 5750 5748 5746 5744 5742 5740 5739 5737 5736 5734 5732 5730 5728 5727 5724 5722 5720 5718 5716 5714
5795 5794 5792 5791 5789 5787 5785 5783 5781 5778 5776 5773 5771 5768 5766 5763 5761 5758 5756 5754 5751 5749 5747 5745 5743 5742 5739 5737 5736 5734 5732 5730 5729 5727 5725 5723 5721 5719 5716 5714 5711 5709 5706
5790 5789 5788 5787 5785 5783 5781 5778 5776 5774 5771 5769 5767 5764 5762 5759 5756 5754 5751 5749 5747 5745 5743 5741 5739 5737 5735 5733 5731 5729 5727 5725 5723 5721 5719 5717 5715 5713 5710 5708 5705 5702 5699
5786 5785 5783 5782 5781 5779 5776 5774 5772 5769 5767 5765 5763 5761 5758 5755 5752 5749 5747 5745 5742 5740 5738 5736 5734 5732 5730 5728 5726 5724 5722 5720 5718 5716 5713 5711 5709 5706 5704 5701 5698 5695 5692
5781 5779 5778 5777 5775 5774 5771 5769 5767 5765 5763 5761 5758 5756 5753 5751 5748 5745 5743 5740 5738 5736 5734 5731 5729 5727 5725 5723 5721 5719 5717 5715 5713 5711 5708 5705 5703 5700 5697 5694 5692 5689 5686
5775 5774 5773 5772 5770 5768 5766 5764 5762 5760 5758 5756 5753 5751 5748 5746 5743 5741 5738 5736 5734 5731 5729 5727 5724 5722 5720 5718 5716 5714 5712 5709 5707 5705 5702 5699 5696 5694 5691 5688 5685 5682 5678
5770 5769 5768 5767 5765 5763 5761 5759 5757 5755 5753 5751 5749 5746 5744 5741 5738 5736 5734 5731 5729 5726 5724 5722 5720 5718 5715 5713 5710 5708 5706 5703 5701 5698 5696 5693 5690 5688 5684 5681 5678 5675 5672
5764 5763 5762 5761 5760 5758 5756 5754 5753 5751 5749 5746 5744 5741 5738 5736 5734 5732 5729 5727 5724 5722 5720 5718 5715 5713 5711 5708 5705 5703 5700 5698 5695 5693 5690 5687 5684 5681 5678 5675 5671 5668 5665
5758 5757 5756 5755 5753 5752 5750 5749 5747 5745 5744 5742 5739 5736 5734 5731 5729 5727 5724 5722 5720 5717 5715 5713 5710 5708 5706 5703 5701 5698 5695 5693 5690 5687 5685 5681 5678 5675 5672 5669 5665 5662 5659
5751 5750 5749 5748 5747 5746 5744 5743 5742 5740 5738 5736 5734 5732 5730 5727 5725 5723 5720 5717 5715 5713 5711 5708 5706 5703 5701 5699 5696 5693 5691 5688 5685 5682 5679 5676 5673 5669 5666 5663 5660 5657 5653
5744 5744 5743 5742 5741 5739 5738 5737 5735 5734 5733 5731 5729 5727 5725 5723 5721 5719 5716 5714 5711 5709 5707 5704 5702 5699 5697 5694 5691 5688 5685 5682 5679 5676 5673 5670 5666 5663 5660 5657 5654 5651 5648